Location: Waltman Observatory
(32.5145°N, 90.4450°W)
Time: 01:50:51
(UTC-05:00)

Amateur Radio Satellites - All Passes

Search period start: 29 August 2015 01:20
Search period end: 30 August 2015 01:20
Location: Waltman Observatory, 32.5145°N, 90.4450°W

Satellite Date Start Highest point End Downlink Frequencies (MHz)
Time Altitude Azimuth
TISAT 1 29 Aug 01:24:03 01:28:02 42° 261° (W) 01:32:02 437.305
SO-50 29 Aug 01:35:34 01:40:05 48° 114° (ESE) 01:44:47 436.795
Oscar 19 29 Aug 01:40:12 01:44:23 25° 95° (E) 01:48:41 437.125/150
ITUPSAT 1 29 Aug 01:40:30 01:44:53 38° 73° (ENE) 01:49:19 437.325
GONETS M04 29 Aug 01:44:03 01:45:57 11° 81° (E) 01:48:43
SPROUT 29 Aug 01:44:27 01:46:51 14° 268° (W) 01:49:02 437.525
RS-15 29 Aug 02:01:05 02:12:48 61° 56° (ENE) 02:24:56 29.354- 29.394
PCSat 29 Aug 02:05:41 02:10:37 39° 110° (ESE) 02:15:39 145.827
BEESAT 3 29 Aug 02:11:13 02:14:45 30° 247° (WSW) 02:18:12 437.485
BEESAT 29 Aug 02:15:27 02:20:13 84° 256° (WSW) 02:25:02 436.000
BEESAT 2 29 Aug 02:18:10 02:21:52 35° 247° (WSW) 02:25:28 435.950
Cosmos 2504 29 Aug 02:29:17 02:30:42 10° 299° (WNW) 02:31:18 435.465 / 435.565
AIST 2 29 Aug 02:31:24 02:35:26 50° 59° (ENE) 02:39:25 435.215
ITAMSAT 1 29 Aug 02:32:15 02:35:44 19° 93° (E) 02:39:25 435.822/435.867
STARS 29 Aug 02:35:31 02:37:03 12° 68° (ENE) 02:38:50 437.465
SWISSCUBE 29 Aug 02:41:19 02:45:46 39° 261° (W) 02:50:13 437.505
KKS-1 29 Aug 02:43:31 02:47:11 27° 72° (ENE) 02:50:59 437.445
SO-50 29 Aug 03:17:38 03:20:56 18° 311° (NW) 03:24:10 436.795
Oscar 19 29 Aug 03:19:11 03:23:45 31° 289° (WNW) 03:28:12 437.125/150
ITUPSAT 1 29 Aug 03:19:42 03:22:55 17° 267° (W) 03:25:58 437.325
AO-7 29 Aug 03:32:24 03:37:03 17° 91° (E) 03:42:15 29.400- 29.500
GONETS M04 29 Aug 03:33:03 03:41:43 82° 94° (E) 03:50:26
Gurwin Techsat 1B 29 Aug 03:33:24 03:38:44 79° 284° (WNW) 03:44:02 435.225
PCSat 29 Aug 03:49:48 03:54:11 24° 306° (NW) 03:58:28 145.827
HORYU 2 29 Aug 03:51:51 03:53:24 12° 91° (E) 03:55:14 437.375
VERMONT LUNAR 29 Aug 03:53:45 03:56:18 26° 146° (SE) 03:58:52 437.305
JAS-2 29 Aug 03:55:36 04:02:36 71° 101° (E) 04:08:44 435.910
MOZHAYETS 4 29 Aug 04:08:41 04:12:42 31° 73° (ENE) 04:16:47
STARS 29 Aug 04:08:49 04:13:05 50° 260° (W) 04:17:24 437.465
ITAMSAT 1 29 Aug 04:10:35 04:15:25 41° 288° (WNW) 04:20:14 435.822/435.867
AIST 2 29 Aug 04:12:48 04:13:36 10° 251° (WSW) 04:14:06 435.215
RS-15 29 Aug 04:14:23 04:24:54 35° 253° (WSW) 04:35:12 29.354- 29.394
KKS-1 29 Aug 04:20:22 04:23:49 21° 265° (W) 04:27:10 437.445
Cosmos 2499 29 Aug 04:40:35 04:48:32 58° 91° (E) 04:57:05 435.465 / 435.565
O/OREOS (USA 219) 29 Aug 05:15:58 05:19:22 21° 62° (ENE) 05:22:52 437.305
AO-7 29 Aug 05:22:27 05:30:46 80° 288° (WNW) 05:39:02 29.400- 29.500
HORYU 2 29 Aug 05:26:03 05:30:20 46° 286° (WNW) 05:34:35 437.375
VERMONT LUNAR 29 Aug 05:29:50 05:32:40 40° 339° (NNW) 05:35:31 437.305
GONETS M04 29 Aug 05:34:20 05:39:45 17° 294° (WNW) 05:44:36
JAS-2 29 Aug 05:42:30 05:46:50 17° 298° (WNW) 05:50:36 435.910
MOZHAYETS 4 29 Aug 05:46:32 05:49:58 20° 266° (W) 05:53:16
CUBESAT XI-V 29 Aug 05:53:36 05:57:42 34° 73° (ENE) 06:01:52 437.345
STRAND 1 29 Aug 06:07:28 06:09:45 13° 67° (ENE) 06:12:18 437.568
CUTE-I 29 Aug 06:12:35 06:15:36 16° 92° (E) 06:18:53 437.470
Cosmos 2499 29 Aug 06:35:32 06:42:19 26° 290° (WNW) 06:49:05 435.465 / 435.565
PHONESAT 2.4 29 Aug 06:49:46 06:53:09 72° 152° (SSE) 06:56:33 2401.200-2431.200
O/OREOS (USA 219) 29 Aug 06:54:48 06:58:50 30° 257° (WSW) 07:02:47 437.305
Cubesat XI-IV 29 Aug 07:04:50 07:10:03 57° 100° (E) 07:15:17 437.490
VERMONT LUNAR 29 Aug 07:07:28 07:09:35 18° 355° (N) 07:11:43 437.305
YUBILEINY 29 Aug 07:11:18 07:12:25 10° 61° (ENE) 07:14:28 435.215
AO-7 29 Aug 07:18:15 07:22:30 14° 304° (WNW) 07:26:12 29.400- 29.500
CUBESAT XI-V 29 Aug 07:32:05 07:35:15 18° 267° (W) 07:38:15 437.345
PRISM 29 Aug 07:40:02 07:44:09 82° 258° (WSW) 07:48:16 437.425
AIST 1 29 Aug 07:40:53 07:41:57 11° 88° (E) 07:43:18
STRAND 1 29 Aug 07:43:29 07:48:31 59° 259° (W) 07:53:33 437.568
CUTE-I 29 Aug 07:50:52 07:56:00 50° 287° (WNW) 08:01:07 437.470
Cosmos 2491 29 Aug 07:53:43 07:55:21 11° 81° (E) 07:57:51 435.465 / 435.565
BRITE-PL 29 Aug 08:00:52 08:05:57 38° 97° (E) 08:11:14 437.365/2234.400
HO-68 29 Aug 08:01:54 08:03:57 12° 89° (E) 08:06:41 435.675
PHONESAT 2.4 29 Aug 08:28:15 08:31:14 28° 346° (NNW) 08:34:13 2401.200-2431.200
SEEDS 29 Aug 08:44:12 08:46:21 14° 92° (E) 08:48:43 437.485
VERMONT LUNAR 29 Aug 08:44:13 08:46:38 22° 12° (NNE) 08:49:05 437.305
GOMX 1 29 Aug 08:45:10 08:50:35 61° 100° (E) 08:56:01 467.674
CINEMA 3 29 Aug 08:46:07 08:48:27 14° 90° (E) 08:51:03 145.822/145.860
Cubesat XI-IV 29 Aug 08:46:41 08:49:45 15° 293° (WNW) 08:52:32 437.490
YUBILEINY 29 Aug 09:02:20 09:11:11 73° 82° (E) 09:19:57 435.215
ISS 29 Aug 09:06:07 09:09:03 33° 131° (SE) 09:12:01 145.825
COMPASS 1 29 Aug 09:10:14 09:13:30 23° 95° (E) 09:16:51 437.405
DOVE 4 29 Aug 09:13:33 09:18:52 72° 101° (E) 09:24:08 437.250
AIST 1 29 Aug 09:15:13 09:19:15 41° 280° (W) 09:23:17
AAUSAT CUBESAT 2 29 Aug 09:22:56 09:26:26 27° 96° (E) 09:29:59 437.432
CUTE 1.7 + AOD 2 29 Aug 09:37:47 09:42:01 88° 282° (WNW) 09:46:13 437.475
BRITE-PL 29 Aug 09:39:48 09:44:16 25° 289° (WNW) 09:48:41 437.365/2234.400
Cosmos 2491 29 Aug 09:42:26 09:51:08 80° 95° (E) 09:59:51 435.465 / 435.565
TIGRISAT 29 Aug 09:44:32 09:46:40 13° 68° (ENE) 09:49:03 435.000
HO-68 29 Aug 09:45:27 09:52:42 89° 103° (ESE) 09:59:54 435.675
CANX-2 29 Aug 09:51:25 09:55:32 51° 284° (WNW) 09:59:36 2200.000
AUBIESAT-1 29 Aug 09:51:43 09:55:13 22° 66° (ENE) 09:58:52 437.475
M-CUBED/EXP-1 PRIME 29 Aug 09:53:36 09:57:33 27° 67° (ENE) 10:01:36 437.505
ANTELSAT 29 Aug 09:59:00 10:02:22 21° 70° (ENE) 10:05:55 437.575/2403.000
PHONESAT 2.4 29 Aug 10:07:05 10:09:45 21° 3° (N) 10:12:24 2401.200-2431.200
Oscar 11 29 Aug 10:07:46 10:11:50 40° 98° (E) 10:15:53 145.826/435.025
DELFI C3 29 Aug 10:08:17 10:11:29 24° 95° (E) 10:14:45 145.870
SO-50 29 Aug 10:12:42 10:15:31 15° 47° (NE) 10:18:30 436.795
SEEDS 29 Aug 10:18:29 10:22:18 34° 286° (WNW) 10:26:03 437.485
HUMSAT D 29 Aug 10:20:14 10:21:23 11° 90° (E) 10:22:51 437.325/437.525
VERMONT LUNAR 29 Aug 10:20:20 10:23:20 86° 208° (SSW) 10:26:19 437.305
CINEMA 3 29 Aug 10:21:08 10:26:00 51° 286° (WNW) 10:30:43 145.822/145.860
Cosmos 2504 29 Aug 10:21:46 10:28:49 30° 72° (ENE) 10:35:45 435.465 / 435.565
GOMX 1 29 Aug 10:25:05 10:28:14 15° 292° (WNW) 10:31:07 467.674
CUBEBUG 2 29 Aug 10:31:12 10:35:55 90° 249° (WSW) 10:40:29 437.445
ISS 29 Aug 10:43:08 10:45:31 18° 326° (NW) 10:47:52 145.825
ZACube-1 29 Aug 10:44:10 10:48:41 72° 100° (E) 10:53:03 437.345
UWE-3 29 Aug 10:44:23 10:49:00 83° 285° (WNW) 10:53:28 435.000/436.395/437.385
COMPASS 1 29 Aug 10:45:52 10:49:05 21° 288° (WNW) 10:52:09 437.405
UNISAT 6 29 Aug 10:48:33 10:53:10 77° 77° (ENE) 10:57:54 437.425
FUNcube-1 29 Aug 10:50:56 10:55:27 84° 101° (ESE) 10:59:49 145.935
DOVE 4 29 Aug 10:53:50 10:56:03 12° 293° (WNW) 10:57:56 437.250
POLYITAN 1 29 Aug 10:56:24 11:00:04 29° 73° (ENE) 11:03:49 437.675
AAUSAT CUBESAT 2 29 Aug 10:58:59 11:01:51 18° 289° (WNW) 11:04:35 437.432
PCSat 29 Aug 10:59:45 11:02:10 13° 48° (NE) 11:04:52 145.827
POPSAT HIP 1 29 Aug 11:00:07 11:03:50 32° 73° (ENE) 11:07:39 437.405
YUBILEINY 29 Aug 11:01:22 11:07:14 19° 277° (W) 11:12:33 435.215
DUCHIFAT 1 29 Aug 11:03:12 11:06:57 33° 73° (ENE) 11:10:47 145.980
50 SAT 29 Aug 11:08:18 11:10:43 16° 93° (E) 11:13:15 437.505
QB50P2 29 Aug 11:15:54 11:20:00 52° 75° (ENE) 11:24:11 145.880/145.840
TIGRISAT 29 Aug 11:18:30 11:22:59 50° 261° (W) 11:27:34 435.000
ESTCUBE 1 29 Aug 11:18:47 11:21:11 15° 92° (E) 11:23:49 437.505/2401.250
NANOSAT C BR1 29 Aug 11:19:14 11:23:20 55° 76° (ENE) 11:27:30 145.865
CUSAT 1 29 Aug 11:23:20 11:30:53 52° 78° (ENE) 11:38:53 437.405
BUGSAT 1 29 Aug 11:23:43 11:27:21 34° 74° (ENE) 11:31:04 437.445
AUBIESAT-1 29 Aug 11:25:24 11:29:41 34° 259° (WSW) 11:33:59 437.475
M-CUBED/EXP-1 PRIME 29 Aug 11:28:07 11:32:12 28° 260° (W) 11:36:14 437.505
DANDE 29 Aug 11:30:00 11:37:03 41° 77° (ENE) 11:45:00 436.750
DX 1 29 Aug 11:30:52 11:35:06 47° 100° (E) 11:39:20 434.975-435.025
QB50P1 29 Aug 11:31:32 11:35:45 81° 78° (ENE) 11:40:02 145.935-145.965
ANTELSAT 29 Aug 11:34:48 11:38:57 31° 264° (W) 11:43:07 437.575/2403.000
HO-68 29 Aug 11:35:52 11:39:38 14° 299° (WNW) 11:42:56 435.675
AISAT 29 Aug 11:41:18 11:45:30 39° 98° (E) 11:49:43 437.250
DELFI C3 29 Aug 11:43:32 11:46:24 19° 289° (WNW) 11:49:09 145.870
Cosmos 2491 29 Aug 11:43:35 11:49:09 17° 294° (WNW) 11:54:07 435.465 / 435.565
PHONESAT 2.4 29 Aug 11:44:53 11:48:08 42° 20° (NNE) 11:51:24 2401.200-2431.200
Oscar 11 29 Aug 11:45:25 11:47:41 14° 291° (WNW) 11:49:45 145.826/435.025
UKube-1 29 Aug 11:47:58 11:52:18 70° 102° (ESE) 11:56:37 .
CUBEBUG 1 29 Aug 11:51:06 11:54:54 29° 97° (E) 11:58:47 437.445
SO-50 29 Aug 11:51:42 11:56:32 59° 245° (WSW) 12:01:12 436.795
HUMSAT D 29 Aug 11:53:22 11:57:25 44° 286° (WNW) 12:01:23 437.325/437.525
VELOX 1 29 Aug 12:10:09 12:14:38 86° 102° (ESE) 12:19:06 145.980
Cosmos 2504 29 Aug 12:13:18 12:21:21 48° 270° (W) 12:28:50 435.465 / 435.565
POLYITAN 1 29 Aug 12:33:04 12:36:02 18° 267° (W) 12:38:50 437.675
POPSAT HIP 1 29 Aug 12:37:04 12:39:48 16° 267° (W) 12:42:23 437.405
DUCHIFAT 1 29 Aug 12:40:17 12:42:53 15° 267° (W) 12:45:18 145.980
PCSat 29 Aug 12:40:51 12:46:17 77° 247° (WSW) 12:51:41 145.827
50 SAT 29 Aug 12:42:02 12:45:16 25° 287° (WNW) 12:48:23 437.505
Oscar 19 29 Aug 12:52:52 12:56:50 24° 70° (ENE) 13:00:57 437.125/150
ESTCUBE 1 29 Aug 12:54:03 12:58:15 39° 286° (WNW) 13:02:24 437.505/2401.250
BUGSAT 1 29 Aug 13:00:50 13:02:59 13° 268° (W) 13:04:55 437.445
JUGNU 29 Aug 13:03:28 13:05:45 12° 164° (SSE) 13:08:09 437.505
CUSAT 1 29 Aug 13:06:29 13:13:12 30° 270° (W) 13:19:56 437.405
DX 1 29 Aug 13:09:02 13:10:58 12° 292° (WNW) 13:12:40 434.975-435.025
TISAT 1 29 Aug 13:12:48 13:16:49 40° 98° (E) 13:20:51 437.305
DANDE 29 Aug 13:13:07 13:20:09 38° 268° (W) 13:27:43 436.750
Gurwin Techsat 1B 29 Aug 13:14:49 13:15:42 11° 65° (ENE) 13:16:58 435.225
AISAT 29 Aug 13:19:04 13:21:46 15° 291° (WNW) 13:24:16 437.250
PHONESAT 2.4 29 Aug 13:22:53 13:25:58 32° 214° (SW) 13:29:04 2401.200-2431.200
CUBEBUG 1 29 Aug 13:27:50 13:31:06 20° 289° (WNW) 13:34:14 437.445
SPROUT 29 Aug 13:33:18 13:37:34 57° 285° (WNW) 13:41:49 437.525
ITAMSAT 1 29 Aug 13:46:12 13:49:38 19° 68° (ENE) 13:53:17 435.822/435.867
ITUPSAT 1 29 Aug 13:47:09 13:49:30 14° 92° (E) 13:52:07 437.325
GONETS M04 29 Aug 13:49:37 13:57:10 32° 73° (ENE) 14:04:56
JAS-2 29 Aug 14:02:09 14:07:38 23° 65° (ENE) 14:13:35 435.910
BEESAT 29 Aug 14:20:34 14:24:53 35° 98° (E) 14:29:15 436.000
AO-7 29 Aug 14:27:29 14:32:17 18° 58° (ENE) 14:37:31 29.400- 29.500
Oscar 19 29 Aug 14:31:24 14:36:02 33° 263° (W) 14:40:39 437.125/150
Cosmos 2499 29 Aug 14:40:18 14:44:39 15° 64° (ENE) 14:49:28 435.465 / 435.565
SWISSCUBE 29 Aug 14:45:46 14:50:31 77° 101° (E) 14:55:17 437.505
Gurwin Techsat 1B 29 Aug 14:49:48 14:55:06 79° 257° (WSW) 15:00:27 435.225
JUGNU 29 Aug 14:49:52 14:54:10 21° 173° (S) 14:58:28 437.505
TISAT 1 29 Aug 14:50:02 14:52:15 14° 291° (WNW) 14:54:16 437.305
ITUPSAT 1 29 Aug 15:23:07 15:27:40 45° 286° (WNW) 15:32:11 437.325
ITAMSAT 1 29 Aug 15:23:57 15:28:52 42° 261° (W) 15:33:45 435.822/435.867
JAS-2 29 Aug 15:44:39 15:52:01 66° 260° (W) 15:59:51 435.910
GONETS M04 29 Aug 15:45:57 15:54:13 46° 270° (W) 16:02:25
SRMSAT 29 Aug 15:54:59 15:58:48 18° 169° (S) 16:02:40 437.500
BEESAT 3 29 Aug 15:58:31 16:02:30 57° 300° (WNW) 16:06:31 437.485
BEESAT 29 Aug 15:59:07 16:02:30 19° 291° (WNW) 16:05:44 436.000
STARS 29 Aug 16:03:01 16:07:13 41° 99° (E) 16:11:24 437.465
BEESAT 2 29 Aug 16:06:31 16:10:34 64° 299° (WNW) 16:14:39 435.950
KKS-1 29 Aug 16:14:42 16:19:13 78° 282° (WNW) 16:23:40 437.445
AO-7 29 Aug 16:15:48 16:24:12 88° 257° (WSW) 16:32:35 29.400- 29.500
RS-15 29 Aug 16:18:44 16:29:14 60° 112° (ESE) 16:40:09 29.354- 29.394
HORYU 2 29 Aug 16:19:10 16:23:40 88° 83° (E) 16:28:12 437.375
AIST 2 29 Aug 16:24:56 16:28:41 32° 113° (ESE) 16:32:31 435.215
Cosmos 2499 29 Aug 16:30:32 16:39:15 87° 263° (W) 16:47:17 435.465 / 435.565
JUGNU 29 Aug 16:38:05 16:42:36 23° 183° (S) 16:47:06 437.505
ISS 29 Aug 17:13:04 17:16:15 54° 42° (NE) 17:19:26 145.825
CUTE-I 29 Aug 17:30:14 17:33:34 18° 68° (ENE) 17:37:07 437.470
STARS 29 Aug 17:40:49 17:43:20 15° 291° (WNW) 17:45:38 437.465
SRMSAT 29 Aug 17:42:48 17:47:23 23° 178° (S) 17:51:59 437.500
MOZHAYETS 4 29 Aug 17:44:50 17:49:19 57° 284° (WNW) 17:53:46
CUBESAT XI-V 29 Aug 17:56:37 17:58:18 12° 91° (E) 18:00:18 437.345
AIST 2 29 Aug 18:04:14 18:07:20 19° 308° (NW) 18:10:22 435.215
AO-7 29 Aug 18:14:03 18:18:08 13° 270° (W) 18:21:29 29.400- 29.500
Cubesat XI-IV 29 Aug 18:22:16 18:27:29 60° 75° (ENE) 18:32:44 437.490
JUGNU 29 Aug 18:27:24 18:31:01 17° 192° (SSW) 18:34:33 437.505
Cosmos 2499 29 Aug 18:27:33 18:31:14 13° 280° (W) 18:34:08 435.465 / 435.565
RS-15 29 Aug 18:32:22 18:42:15 36° 313° (NW) 18:52:16 29.354- 29.394
CUTE-I 29 Aug 19:08:11 19:13:19 48° 260° (W) 19:18:26 437.470
BRITE-PL 29 Aug 19:08:44 19:11:51 21° 70° (ENE) 19:15:15 437.365/2234.400
O/OREOS (USA 219) 29 Aug 19:22:41 19:27:03 53° 106° (ESE) 19:31:31 437.305
AIST 1 29 Aug 19:27:03 19:30:45 28° 78° (ENE) 19:34:32
PRISM 29 Aug 19:27:35 19:30:26 19° 95° (E) 19:33:25 437.425
CUBESAT XI-V 29 Aug 19:31:35 19:36:04 50° 285° (WNW) 19:40:33 437.345
SRMSAT 29 Aug 19:31:43 19:35:59 20° 188° (S) 19:40:13 437.500
GOMX 1 29 Aug 19:49:27 19:53:22 34° 73° (ENE) 19:57:36 467.674
STRAND 1 29 Aug 19:58:32 20:03:37 69° 102° (ESE) 20:08:43 437.568
Cosmos 2491 29 Aug 19:59:10 20:06:37 32° 73° (ENE) 20:14:18 435.465 / 435.565
Cubesat XI-IV 29 Aug 20:05:27 20:08:03 13° 269° (W) 20:10:17 437.490
YUBILEINY 29 Aug 20:05:48 20:09:47 15° 82° (E) 20:14:31 435.215
HO-68 29 Aug 20:09:01 20:15:36 42° 69° (ENE) 20:22:18 435.675
AAUSAT CUBESAT 2 29 Aug 20:11:28 20:12:33 11° 69° (ENE) 20:13:53 437.432
DOVE 4 29 Aug 20:14:49 20:18:56 39° 73° (ENE) 20:23:23 437.250
CUTE 1.7 + AOD 2 29 Aug 20:26:03 20:29:57 35° 74° (ENE) 20:33:53 437.475
CANX-2 29 Aug 20:39:18 20:43:31 59° 76° (ENE) 20:47:45 2200.000
BRITE-PL 29 Aug 20:46:44 20:50:17 25° 266° (W) 20:53:56 437.365/2234.400
RS-15 29 Aug 20:56:57 20:59:47 11° 346° (NNW) 21:02:14 29.354- 29.394
Oscar 11 29 Aug 20:58:56 21:01:53 19° 71° (ENE) 21:04:59 145.826/435.025
PRISM 29 Aug 21:02:25 21:05:52 25° 288° (WNW) 21:09:14 437.425
O/OREOS (USA 219) 29 Aug 21:04:58 21:06:54 12° 303° (WNW) 21:08:36 437.305
SEEDS 29 Aug 21:05:08 21:09:23 87° 78° (ENE) 21:13:40 437.485
AIST 1 29 Aug 21:05:16 21:08:13 17° 270° (W) 21:11:01
CINEMA 3 29 Aug 21:17:38 21:22:12 86° 78° (ENE) 21:27:01 145.822/145.860
SRMSAT 29 Aug 21:22:41 21:24:33 11° 197° (SSW) 21:26:17 437.500
CUBEBUG 2 29 Aug 21:24:30 21:28:47 43° 74° (ENE) 21:33:15 437.445
GOMX 1 29 Aug 21:28:56 21:31:44 16° 269° (W) 21:34:27 467.674
COMPASS 1 29 Aug 21:31:14 21:35:24 57° 260° (W) 21:39:33 437.405
ZACube-1 29 Aug 21:35:29 21:39:28 32° 73° (ENE) 21:43:33 437.345
UWE-3 29 Aug 21:36:32 21:40:51 45° 74° (ENE) 21:45:17 435.000/436.395/437.385
STRAND 1 29 Aug 21:40:32 21:42:19 11° 294° (WNW) 21:43:47 437.568
FUNcube-1 29 Aug 21:41:52 21:45:58 36° 73° (ENE) 21:50:10 145.935
AAUSAT CUBESAT 2 29 Aug 21:43:42 21:47:46 47° 261° (W) 21:51:50 437.432
DOVE 4 29 Aug 21:54:20 21:57:00 15° 270° (W) 21:59:32 437.250
Cosmos 2491 29 Aug 21:55:28 22:03:44 47° 270° (W) 22:11:54 435.465 / 435.565
YUBILEINY 29 Aug 21:56:54 22:05:41 86° 276° (W) 22:14:33 435.215
HO-68 29 Aug 21:57:15 22:03:27 30° 264° (W) 22:09:31 435.675
CUTE 1.7 + AOD 2 29 Aug 22:03:28 22:06:00 15° 268° (W) 22:08:20 437.475
DX 1 29 Aug 22:22:36 22:25:58 23° 71° (ENE) 22:29:26 434.975-435.025
DELFI C3 29 Aug 22:24:39 22:28:38 59° 259° (W) 22:32:39 145.870
Oscar 11 29 Aug 22:34:01 22:37:53 30° 264° (W) 22:41:41 145.826/435.025
AISAT 29 Aug 22:35:19 22:38:31 21° 71° (ENE) 22:41:50 437.250
UKube-1 29 Aug 22:38:29 22:42:16 32° 73° (ENE) 22:46:08 .
HUMSAT D 29 Aug 22:39:47 22:44:03 68° 76° (ENE) 22:48:21 437.325/437.525
CUBEBUG 1 29 Aug 22:44:20 22:46:28 14° 69° (ENE) 22:48:50 437.445
UNISAT 6 29 Aug 22:46:04 22:49:37 23° 94° (E) 22:53:11 437.425
Cosmos 2504 29 Aug 22:46:49 22:52:37 24° 84° (E) 22:59:02 435.465 / 435.565
CUBEBUG 2 29 Aug 23:03:09 23:05:45 14° 269° (W) 23:08:07 437.445
VELOX 1 29 Aug 23:03:14 23:07:20 41° 74° (ENE) 23:11:30 145.980
QB50P2 29 Aug 23:07:36 23:09:22 13° 91° (E) 23:11:23 145.880/145.840
NANOSAT C BR1 29 Aug 23:10:24 23:12:16 13° 92° (E) 23:14:21 145.865
AUBIESAT-1 29 Aug 23:11:12 23:14:21 24° 99° (E) 23:17:22 437.475
ZACube-1 29 Aug 23:12:40 23:15:53 19° 267° (W) 23:18:59 437.345
M-CUBED/EXP-1 PRIME 29 Aug 23:13:57 23:17:31 33° 101° (ESE) 23:20:50 437.505
RS-15 29 Aug 23:14:38 23:19:46 14° 23° (NNE) 23:25:34 29.354- 29.394
TIGRISAT 29 Aug 23:14:57 23:19:23 48° 99° (E) 23:23:41 435.000
UWE-3 29 Aug 23:15:18 23:17:39 13° 270° (W) 23:19:47 435.000/436.395/437.385
FUNcube-1 29 Aug 23:19:32 23:22:26 16° 268° (W) 23:25:09 145.935
50 SAT 29 Aug 23:19:50 23:23:48 86° 73° (ENE) 23:27:46 437.505
QB50P1 29 Aug 23:22:06 23:25:05 19° 94° (E) 23:28:13 145.935-145.965
ANTELSAT 29 Aug 23:30:56 23:35:31 80° 101° (ESE) 23:39:57 437.575/2403.000
ESTCUBE 1 29 Aug 23:48:35 23:53:05 76° 258° (WSW) 23:57:35 437.505/2401.250
DX 1 29 Aug 23:58:37 00:02:08 23° 264° (W) 00:05:33 434.975-435.025
YUBILEINY 29 Aug 23:59:39 00:04:03 14° 296° (WNW) 00:07:44 435.215
TISAT 1 30 Aug 00:01:29 00:04:08 17° 70° (ENE) 00:06:58 437.305
AISAT 30 Aug 00:11:09 00:14:56 27° 264° (W) 00:18:41 437.250
UKube-1 30 Aug 00:15:37 00:18:29 17° 266° (W) 00:21:11 .
CUBEBUG 1 30 Aug 00:18:28 00:22:31 39° 261° (W) 00:26:35 437.445
POLYITAN 1 30 Aug 00:21:19 00:25:38 76° 283° (WNW) 00:29:54 437.675
BEESAT 3 30 Aug 00:21:48 00:24:45 20° 53° (NE) 00:27:45 437.485
UNISAT 6 30 Aug 00:22:32 00:26:22 26° 288° (WNW) 00:30:00 437.425
SPROUT 30 Aug 00:22:33 00:26:45 58° 76° (ENE) 00:31:00 437.525
SO-50 30 Aug 00:24:27 00:25:49 11° 108° (ESE) 00:27:30 436.795
POPSAT HIP 1 30 Aug 00:24:51 00:29:09 70° 283° (WNW) 00:33:24 437.405
CUSAT 1 30 Aug 00:26:47 00:30:00 47° 93° (E) 00:34:12 437.405
DUCHIFAT 1 30 Aug 00:27:25 00:31:40 68° 284° (WNW) 00:35:54 145.980
BEESAT 2 30 Aug 00:30:34 00:33:23 18° 52° (NE) 00:36:17 435.950
Cosmos 2504 30 Aug 00:36:26 00:44:14 58° 280° (W) 00:52:32 435.465 / 435.565
DANDE 30 Aug 00:38:59 00:41:42 31° 91° (E) 00:45:06 436.750
QB50P2 30 Aug 00:41:26 00:45:29 41° 286° (WNW) 00:49:30 145.880/145.840
VELOX 1 30 Aug 00:41:56 00:44:08 13° 268° (W) 00:46:05 145.980
NANOSAT C BR1 30 Aug 00:44:16 00:48:18 40° 286° (WNW) 00:52:18 145.865
BUGSAT 1 30 Aug 00:45:00 00:49:15 69° 283° (WNW) 00:53:28 437.445
AUBIESAT-1 30 Aug 00:46:18 00:48:55 17° 295° (WNW) 00:51:16 437.475
M-CUBED/EXP-1 PRIME 30 Aug 00:49:57 00:51:58 13° 297° (WNW) 00:53:44 437.505
ITUPSAT 1 30 Aug 00:51:45 00:52:21 10° 66° (ENE) 00:53:16 437.325
TIGRISAT 30 Aug 00:53:32 00:55:42 13° 292° (WNW) 00:57:36 435.000
QB50P1 30 Aug 00:57:16 01:00:59 28° 287° (WNW) 01:04:35 145.935-145.965
Oscar 19 30 Aug 01:10:52 01:12:17 11° 90° (E) 01:14:06 437.125/150
